• In Österreich
  • Länderverzeichnis
  • Für 7 Tage
  • Wassertemperatur
  • Satellitenkarten
  • Wetterkarte
  • News
  • Widgets
  • user-avatar
    Anmelden

    Stündliche Wetter Kerikeri

    Heute, 17 Oktober, Mittwoch

    Zeit Temperatur Niederschläge Wind Luftdruck Luftfeuchtigkeit
    00:00 +9°C° 0 mm 2 m/S 763 mmHg 90%
    01:00 +9°C° 0 mm 2 m/S 763 mmHg 90%
    02:00 +9°C° 0 mm 2 m/S 762 mmHg 90%
    03:00 +9°C° 0 mm 2 m/S 762 mmHg 90%
    04:00 +9°C° 0 mm 2 m/S 762 mmHg 90%
    05:00 +9°C° 0 mm 2 m/S 762 mmHg 90%
    06:00 +9°C° 0 mm 2 m/S 761 mmHg 89%
    07:00 +11°C° 0 mm 3 m/S 761 mmHg 81%
    08:00 +12°C° 0 mm 3 m/S 761 mmHg 73%
    09:00 +14°C° 0 mm 3 m/S 761 mmHg 66%
    10:00 +14°C° 0 mm 3 m/S 761 mmHg 63%
    11:00 +16°C° 0 mm 3 m/S 761 mmHg 60%
    12:00 +17°C° 0 mm 3 m/S 761 mmHg 57%
    13:00 +17°C° 0 mm 3 m/S 761 mmHg 57%
    14:00 +17°C° 0 mm 3 m/S 761 mmHg 57%
    15:00 +17°C° 0 mm 3 m/S 760 mmHg 57%
    16:00 +15°C° 0 mm 4 m/S 760 mmHg 61%
    17:00 +14°C° 0 mm 4 m/S 760 mmHg 65%
    18:00 +13°C° 0 mm 4 m/S 760 mmHg 69%
    19:00 +12°C° 0 mm 4 m/S 760 mmHg 75%
    20:00 +10°C° 0 mm 4 m/S 760 mmHg 81%
    21:00 +8°C° 0 mm 4 m/S 760 mmHg 87%
    22:00 +9°C° 0 mm 3 m/S 760 mmHg 88%
    23:00 +9°C° 0 mm 3 m/S 760 mmHg 89%

    Morgen, 18 Oktober, Donnerstag

    Zeit Temperatur Niederschläge Wind Luftdruck Luftfeuchtigkeit
    00:00 +9°C° 0 mm 3 m/S 761 mmHg 89%
    01:00 +9°C° 0 mm 3 m/S 760 mmHg 89%
    02:00 +9°C° 0 mm 3 m/S 760 mmHg 89%
    03:00 +8°C° 0 mm 3 m/S 760 mmHg 89%
    04:00 +9°C° 0 mm 3 m/S 760 mmHg 89%
    05:00 +9°C° 0 mm 3 m/S 760 mmHg 89%
    06:00 +9°C° 0 mm 3 m/S 760 mmHg 90%
    07:00 +11°C° 0 mm 3 m/S 760 mmHg 81%
    08:00 +13°C° 0 mm 3 m/S 761 mmHg 73%
    09:00 +16°C° 0 mm 3 m/S 761 mmHg 65%
    10:00 +17°C° 0 mm 3 m/S 761 mmHg 64%
    11:00 +17°C° 0 mm 3 m/S 761 mmHg 63%
    12:00 +17°C° 0 mm 3 m/S 761 mmHg 62%
    13:00 +17°C° 0 mm 3 m/S 761 mmHg 62%
    14:00 +18°C° 0 mm 3 m/S 760 mmHg 62%
    15:00 +18°C° 0 mm 3 m/S 760 mmHg 62%
    16:00 +17°C° 0 mm 3 m/S 760 mmHg 65%
    17:00 +16°C° 0 mm 3 m/S 760 mmHg 68%
    18:00 +16°C° 0 mm 3 m/S 760 mmHg 71%
    19:00 +13°C° 0 mm 3 m/S 761 mmHg 78%
    20:00 +12°C° 0 mm 3 m/S 761 mmHg 85%
    21:00 +10°C° 0 mm 3 m/S 761 mmHg 91%
    22:00 +10°C° 0 mm 3 m/S 762 mmHg 92%
    23:00 +10°C° 0 mm 2 m/S 762 mmHg 93%

    übermorgen, 19 Oktober, Freitag

    Zeit Temperatur Niederschläge Wind Luftdruck Luftfeuchtigkeit
    00:00 +9°C° 0 mm 2 m/S 762 mmHg 94%
    01:00 +9°C° 0 mm 2 m/S 762 mmHg 95%
    02:00 +9°C° 0 mm 2 m/S 762 mmHg 95%
    03:00 +9°C° 0 mm 2 m/S 761 mmHg 96%
    04:00 +9°C° 0 mm 2 m/S 762 mmHg 95%
    05:00 +9°C° 0 mm 2 m/S 762 mmHg 95%
    06:00 +9°C° 0 mm 2 m/S 762 mmHg 95%
    07:00 +11°C° 0 mm 3 m/S 763 mmHg 88%
    08:00 +14°C° 0 mm 3 m/S 763 mmHg 80%
    09:00 +17°C° 0 mm 4 m/S 764 mmHg 73%
    10:00 +18°C° 0 mm 4 m/S 764 mmHg 69%
    11:00 +19°C° 0 mm 4 m/S 764 mmHg 66%
    12:00 +20°C° 0 mm 5 m/S 764 mmHg 62%
    13:00 +20°C° 0 mm 5 m/S 763 mmHg 62%
    14:00 +20°C° 0 mm 4 m/S 763 mmHg 61%
    15:00 +21°C° 0 mm 4 m/S 762 mmHg 60%
    16:00 +20°C° 0 mm 4 m/S 762 mmHg 66%
    17:00 +19°C° 0 mm 4 m/S 762 mmHg 71%
    18:00 +18°C° 0 mm 3 m/S 762 mmHg 77%
    19:00 +16°C° 0 mm 3 m/S 763 mmHg 83%
    20:00 +14°C° 0 mm 3 m/S 763 mmHg 88%
    21:00 +13°C° 0 mm 3 m/S 763 mmHg 94%
    22:00 +13°C° 0 mm 3 m/S 763 mmHg 94%
    23:00 +14°C° 0 mm 2 m/S 763 mmHg 95%

    20 Oktober, Samstag

    Zeit Temperatur Niederschläge Wind Luftdruck Luftfeuchtigkeit
    00:00 +14°C° 0 mm 2 m/S 763 mmHg 95%
    01:00 +14°C° 0 mm 2 m/S 763 mmHg 95%
    02:00 +14°C° 0 mm 2 m/S 762 mmHg 95%
    03:00 +14°C° 0 mm 2 m/S 762 mmHg 95%
    04:00 +13°C° 0 mm 2 m/S 762 mmHg 95%
    05:00 +13°C° 0 mm 2 m/S 762 mmHg 95%
    06:00 +13°C° 0 mm 2 m/S 762 mmHg 95%
    07:00 +15°C° 0 mm 2 m/S 763 mmHg 86%
    08:00 +17°C° 0 mm 2 m/S 763 mmHg 77%
    09:00 +19°C° 0 mm 3 m/S 763 mmHg 68%
    10:00 +19°C° 0 mm 3 m/S 763 mmHg 67%
    11:00 +19°C° 0 mm 3 m/S 763 mmHg 66%
    12:00 +20°C° 0 mm 3 m/S 763 mmHg 65%
    13:00 +20°C° 0 mm 3 m/S 762 mmHg 63%
    14:00 +20°C° 0 mm 3 m/S 762 mmHg 62%
    15:00 +21°C° 0 mm 2 m/S 762 mmHg 60%
    16:00 +20°C° 0 mm 2 m/S 761 mmHg 68%
    17:00 +18°C° 0 mm 2 m/S 761 mmHg 75%
    18:00 +17°C° 0 mm 2 m/S 761 mmHg 82%
    19:00 +16°C° 0 mm 2 m/S 762 mmHg 86%
    20:00 +15°C° 0 mm 2 m/S 762 mmHg 90%
    21:00 +14°C° 0 mm 2 m/S 762 mmHg 94%
    22:00 +14°C° 0 mm 2 m/S 762 mmHg 94%
    23:00 +13°C° 0 mm 1 m/S 762 mmHg 94%

    21 Oktober, Sonntag

    Zeit Temperatur Niederschläge Wind Luftdruck Luftfeuchtigkeit
    00:00 +13°C° 0 mm 1 m/S 762 mmHg 95%
    01:00 +13°C° 0 mm 1 m/S 762 mmHg 94%
    02:00 +13°C° 0 mm 1 m/S 761 mmHg 94%
    03:00 +12°C° 0 mm 0 m/S 761 mmHg 94%
    04:00 +12°C° 0 mm 0 m/S 761 mmHg 94%
    05:00 +13°C° 0 mm 1 m/S 761 mmHg 94%
    06:00 +13°C° 0 mm 1 m/S 761 mmHg 94%
    07:00 +15°C° 0 mm 1 m/S 761 mmHg 84%
    08:00 +19°C° 0 mm 1 m/S 762 mmHg 74%
    09:00 +21°C° 0 mm 1 m/S 762 mmHg 64%
    10:00 +21°C° 0 mm 1 m/S 762 mmHg 64%
    11:00 +21°C° 0 mm 1 m/S 761 mmHg 64%
    12:00 +20°C° 0 mm 2 m/S 761 mmHg 64%
    13:00 +20°C° 0 mm 2 m/S 761 mmHg 68%
    14:00 +19°C° 0 mm 2 m/S 761 mmHg 73%
    15:00 +19°C° 0 mm 2 m/S 761 mmHg 77%
    16:00 +18°C° 0 mm 2 m/S 761 mmHg 79%
    17:00 +19°C° 0 mm 1 m/S 761 mmHg 81%
    18:00 +19°C° 0 mm 1 m/S 761 mmHg 83%
    19:00 +16°C° 0 mm 1 m/S 761 mmHg 86%
    20:00 +15°C° 0 mm 1 m/S 761 mmHg 90%
    21:00 +14°C° 0 mm 1 m/S 761 mmHg 93%
    22:00 +13°C° 0 mm 1 m/S 761 mmHg 93%
    23:00 +13°C° 0 mm 1 m/S 761 mmHg 94%

    22 Oktober, Montag

    Zeit Temperatur Niederschläge Wind Luftdruck Luftfeuchtigkeit
    00:00 +12°C° 0 mm 1 m/S 761 mmHg 94%
    01:00 +12°C° 0 mm 1 m/S 761 mmHg 94%
    02:00 +12°C° 0 mm 2 m/S 761 mmHg 94%
    03:00 +12°C° 0 mm 2 m/S 761 mmHg 94%
    04:00 +12°C° 0 mm 2 m/S 761 mmHg 94%
    05:00 +12°C° 0 mm 2 m/S 761 mmHg 94%
    06:00 +10°C° 0 mm 2 m/S 762 mmHg 93%
    07:00 +14°C° 0 mm 2 m/S 762 mmHg 82%
    08:00 +17°C° 0 mm 2 m/S 762 mmHg 70%
    09:00 +20°C° 0 mm 2 m/S 762 mmHg 59%
    10:00 +21°C° 0 mm 2 m/S 762 mmHg 54%
    11:00 +24°C° 0 mm 2 m/S 762 mmHg 49%
    12:00 +25°C° 0 mm 2 m/S 762 mmHg 44%
    13:00 +25°C° 0 mm 2 m/S 761 mmHg 46%
    14:00 +24°C° 0 mm 2 m/S 761 mmHg 49%
    15:00 +24°C° 0 mm 3 m/S 761 mmHg 51%
    16:00 +23°C° 0 mm 2 m/S 761 mmHg 58%
    17:00 +20°C° 0 mm 2 m/S 761 mmHg 65%
    18:00 +19°C° 0 mm 2 m/S 761 mmHg 72%
    19:00 +18°C° 0 mm 1 m/S 762 mmHg 79%
    20:00 +15°C° 0 mm 1 m/S 762 mmHg 86%
    21:00 +13°C° 0 mm 0 m/S 762 mmHg 94%
    22:00 +12°C° 0 mm 0 m/S 762 mmHg 94%
    23:00 +12°C° 0 mm 0 m/S 762 mmHg 95%
    Mehr zeigen